TimeCST,TemperatureF,Dew PointF,Humidity,Sea Level PressureIn,VisibilityMPH,Wind Direction,Wind SpeedMPH,Gust SpeedMPH,PrecipitationIn,Events,Conditions,WindDirDegrees,DateUTC
12:00 AM,75.2,73.4,94,29.89,6.2,Calm,Calm,-,N/A,,Mostly Cloudy,0,2012-10-16 06:00:00
2:00 AM,73.4,73.4,100,29.86,6.2,Calm,Calm,-,N/A,,Mostly Cloudy,0,2012-10-16 08:00:00
3:00 AM,75.2,73.4,94,29.86,6.2,Calm,Calm,-,N/A,,Partly Cloudy,0,2012-10-16 09:00:00
4:00 AM,75.2,73.4,94,29.86,6.2,Calm,Calm,-,N/A,,Scattered Clouds,0,2012-10-16 10:00:00
5:00 AM,73.4,71.6,94,29.86,6.2,Calm,Calm,-,N/A,,Scattered Clouds,0,2012-10-16 11:00:00
6:00 AM,72,71,97,29.90,25,Calm,Calm,,,,Scattered Clouds,,2012-10-16 12:00:00
6:00 AM,71.6,71.6,100,29.89,6.2,Calm,Calm,-,N/A,,Scattered Clouds,0,2012-10-16 12:00:00
7:00 AM,75.2,73.4,94,29.92,-9999.0,Calm,Calm,-,N/A,,Clear,0,2012-10-16 13:00:00
8:00 AM,80.6,73.4,79,29.92,6.2,WNW,6.9,-,N/A,,Scattered Clouds,300,2012-10-16 14:00:00
9:00 AM,82.4,71.6,70,29.92,6.2,Calm,Calm,-,N/A,,Partly Cloudy,300,2012-10-16 15:00:00
10:00 AM,84.2,73.4,70,29.95,6.2,NW,6.9,-,N/A,,Scattered Clouds,320,2012-10-16 16:00:00
11:00 AM,86.0,73.4,66,29.92,6.2,NW,9.2,-,N/A,,Scattered Clouds,320,2012-10-16 17:00:00
12:00 PM,87,72,53,29.89,25,North,4.6,,,,Partly Cloudy,0,2012-10-16 18:00:00
12:00 PM,87.8,71.6,58,29.89,6.2,North,4.6,-,N/A,,Scattered Clouds,360,2012-10-16 18:00:00
1:00 PM,87.8,73.4,62,29.86,6.2,North,6.9,-,N/A,,Scattered Clouds,360,2012-10-16 19:00:00
3:00 PM,87.8,73.4,62,29.80,6.2,North,6.9,-,N/A,,Scattered Clouds,360,2012-10-16 21:00:00
4:00 PM,84.2,73.4,70,29.80,6.2,Calm,Calm,-,N/A,,Partly Cloudy,0,2012-10-16 22:00:00
5:00 PM,84.2,73.4,70,29.80,6.2,Calm,Calm,-,N/A,,Scattered Clouds,0,2012-10-16 23:00:00
6:00 PM,80.6,75.2,84,29.80,6.2,Calm,Calm,-,N/A,,Scattered Clouds,0,2012-10-17 00:00:00
7:00 PM,78.8,73.4,83,29.83,6.2,Calm,Calm,-,N/A,,Scattered Clouds,0,2012-10-17 01:00:00
8:00 PM,77.0,73.4,89,29.86,-9999.0,Calm,Calm,-,N/A,,Clear,0,2012-10-17 02:00:00
9:00 PM,75.2,73.4,94,29.89,-9999.0,Calm,Calm,-,N/A,,Clear,0,2012-10-17 03:00:00
10:00 PM,75.2,73.4,94,29.89,-9999.0,Calm,Calm,-,N/A,,Clear,0,2012-10-17 04:00:00
11:00 PM,73.4,73.4,100,29.86,-9999.0,Calm,Calm,-,N/A,,Clear,0,2012-10-17 05:00:00